Tracking 29892 objects as of 21-Nov-2024
HD Live streaming from Space Station
objects crossing your sky now

STARLINK-5497

Track STARLINK-5497 now!
10-day predictions
STARLINK-5497 is classified as:


NORAD ID: 55629
Int'l Code: 2023-021B
Perigee: 577.1 km
Apogee: 581.2 km
Inclination: 70.0 °
Period: 96.1 minutes
Semi major axis: 6950 km
RCS: Unknown
Launch date: February 17, 2023
Source: United States (US)
Launch site: AIR FORCE WESTERN TEST RANGE (AFWTR)
Your satellite tracking list
Your tracking list is empty




NASA's NSSDC Master Catalog

Two Line Element Set (TLE):
1 55629U 23021B   24326.14898983  .00000455  00000-0  45886-4 0  9991
2 55629  69.9984 318.5300 0002965 271.2905  88.7914 14.98332193 97064
Source of the keplerian elements: AFSPC